Location: Ipswich
(52.0579°N, 1.1528°E)
Time: 20:54:32
(UTC+01:00)

ISS - Pass Details

Date: 07 May 2026
Orbit: 414 x 424 km, 51.6° (Epoch: 15 May)

Event Time Altitude Azimuth Distance (km) Brightness Sun altitude
Exits shadow 00:46:40 10° 85° (E) 1,481 -0.9 -21.2°
Drops below altitude 10° 00:46:43 10° 85° (E) 1,498 -0.9 -21.2°
Sets 00:48:49 0° 84° (E) 2,364 0.1 -21.2°
